owner,sensor,date,latitude,longitude,vertical_datum,wind_speed,wind_to_direction,wind_speed_of_gust,qcFlag 
WAVCIS,ioos:station:WAVCIS:CSI03:3,2011-11-01T00:00:00Z,29.4412,-92.0613,10.0,1.02,145.0,,'11111222,11111222,99999999' 
WAVCIS,ioos:station:WAVCIS:CSI03:3,2011-11-01T01:00:00Z,29.4412,-92.0613,10.0,1.47,161.0,,'11111222,11111222,99999999' 
WAVCIS,ioos:station:WAVCIS:CSI03:3,2011-11-01T02:00:00Z,29.4412,-92.0613,10.0,1.603,105.0,,'11111222,11111222,99999999' 
WAVCIS,ioos:station:WAVCIS:CSI03:3,2011-11-01T03:00:00Z,29.4412,-92.0613,10.0,1.414,141.0,,'11111222,11111222,99999999' 
WAVCIS,ioos:station:WAVCIS:CSI03:3,2011-11-01T04:00:00Z,29.4412,-92.0613,10.0,2.088,75.0,,'11111222,11111222,99999999' 
WAVCIS,ioos:station:WAVCIS:CSI03:3,2011-11-01T05:00:00Z,29.4412,-92.0613,10.0,1.878,65.0,,'11111222,11111222,99999999' 
WAVCIS,ioos:station:WAVCIS:CSI03:3,2011-11-01T06:00:00Z,29.4412,-92.0613,10.0,1.966,102.0,,'11111222,11111222,99999999' 
WAVCIS,ioos:station:WAVCIS:CSI03:3,2011-11-01T07:00:00Z,29.4412,-92.0613,10.0,1.708,118.0,,'11111222,11111222,99999999' 
WAVCIS,ioos:station:WAVCIS:CSI03:3,2011-11-01T08:00:00Z,29.4412,-92.0613,10.0,1.509,96.0,,'11111222,11111222,99999999' 
WAVCIS,ioos:station:WAVCIS:CSI03:3,2011-11-01T09:00:00Z,29.4412,-92.0613,10.0,1.51,63.0,,'11111222,11111222,99999999' 
WAVCIS,ioos:station:WAVCIS:CSI03:3,2011-11-01T10:00:00Z,29.4412,-92.0613,10.0,1.993,56.0,,'11111222,11111222,99999999' 
WAVCIS,ioos:station:WAVCIS:CSI03:3,2011-11-01T11:00:00Z,29.4412,-92.0613,10.0,2.646,66.0,,'11111222,11111222,99999999' 
WAVCIS,ioos:station:WAVCIS:CSI03:3,2011-11-01T12:00:00Z,29.4412,-92.0613,10.0,3.085,59.0,,'11111222,11111222,99999999' 
WAVCIS,ioos:station:WAVCIS:CSI03:3,2011-11-01T13:00:00Z,29.4412,-92.0613,10.0,3.771,70.0,,'11111222,11111222,99999999' 
WAVCIS,ioos:station:WAVCIS:CSI03:3,2011-11-01T14:00:00Z,29.4412,-92.0613,10.0,5.437,82.0,,'11111222,11111222,99999999' 
WAVCIS,ioos:station:WAVCIS:CSI03:3,2011-11-01T15:00:00Z,29.4412,-92.0613,10.0,6.297,100.0,,'11111222,11111222,99999999' 
WAVCIS,ioos:station:WAVCIS:CSI03:3,2011-11-01T16:00:00Z,29.4412,-92.0613,10.0,7.25,109.0,,'11111222,11111222,99999999' 
WAVCIS,ioos:station:WAVCIS:CSI03:3,2011-11-01T17:00:00Z,29.4412,-92.0613,10.0,7.32,108.0,,'11111222,11111222,99999999' 
WAVCIS,ioos:station:WAVCIS:CSI03:3,2011-11-01T18:00:00Z,29.4412,-92.0613,10.0,6.253,108.0,,'11111222,11111222,99999999' 
WAVCIS,ioos:station:WAVCIS:CSI03:3,2011-11-01T19:00:00Z,29.4412,-92.0613,10.0,5.991,109.0,,'11111222,11111222,99999999' 
WAVCIS,ioos:station:WAVCIS:CSI03:3,2011-11-01T20:00:00Z,29.4412,-92.0613,10.0,5.92,109.0,,'11111222,11111222,99999999' 
WAVCIS,ioos:station:WAVCIS:CSI03:3,2011-11-01T21:00:00Z,29.4412,-92.0613,10.0,5.054,112.0,,'11111222,11111222,99999999' 
WAVCIS,ioos:station:WAVCIS:CSI03:3,2011-11-01T22:00:00Z,29.4412,-92.0613,10.0,4.498,112.0,,'11111222,11111222,99999999' 
WAVCIS,ioos:station:WAVCIS:CSI03:3,2011-11-01T23:00:00Z,29.4412,-92.0613,10.0,3.531,112.0,,'11111222,11111222,99999999' 
WAVCIS,ioos:station:WAVCIS:CSI03:3,2011-11-02T00:00:00Z,29.4412,-92.0613,10.0,3.256,117.0,,'11111222,11111222,99999999' 
WAVCIS,ioos:station:WAVCIS:CSI03:3,2011-11-02T01:00:00Z,29.4412,-92.0613,10.0,3.719,113.0,,'11111222,11111222,99999999' 
WAVCIS,ioos:station:WAVCIS:CSI03:3,2011-11-02T02:00:00Z,29.4412,-92.0613,10.0,4.588,115.0,,'11111222,11111222,99999999' 
WAVCIS,ioos:station:WAVCIS:CSI03:3,2011-11-02T03:00:00Z,29.4412,-92.0613,10.0,7.88,111.0,,'11111222,11111222,99999999' 
WAVCIS,ioos:station:WAVCIS:CSI03:3,2011-11-02T04:00:00Z,29.4412,-92.0613,10.0,8.26,110.0,,'11111222,11111222,99999999' 
WAVCIS,ioos:station:WAVCIS:CSI03:3,2011-11-02T05:00:00Z,29.4412,-92.0613,10.0,8.13,110.0,,'11111222,11111222,99999999' 
WAVCIS,ioos:station:WAVCIS:CSI03:3,2011-11-02T06:00:00Z,29.4412,-92.0613,10.0,8.62,103.0,,'11111222,11111222,99999999' 
WAVCIS,ioos:station:WAVCIS:CSI03:3,2011-11-02T07:00:00Z,29.4412,-92.0613,10.0,8.53,105.0,,'11111222,11111222,99999999' 
WAVCIS,ioos:station:WAVCIS:CSI03:3,2011-11-02T08:00:00Z,29.4412,-92.0613,10.0,8.81,106.0,,'11111222,11111222,99999999' 
WAVCIS,ioos:station:WAVCIS:CSI03:3,2011-11-02T09:00:00Z,29.4412,-92.0613,10.0,9.03,109.0,,'11111222,11111222,99999999' 
WAVCIS,ioos:station:WAVCIS:CSI03:3,2011-11-02T10:00:00Z,29.4412,-92.0613,10.0,9.17,108.0,,'11111222,11111222,99999999' 
WAVCIS,ioos:station:WAVCIS:CSI03:3,2011-11-02T11:00:00Z,29.4412,-92.0613,10.0,8.52,110.0,,'11111222,11111222,99999999' 
WAVCIS,ioos:station:WAVCIS:CSI03:3,2011-11-02T12:00:00Z,29.4412,-92.0613,10.0,7.56,111.0,,'11111222,11111222,99999999' 
WAVCIS,ioos:station:WAVCIS:CSI03:3,2011-11-02T13:00:00Z,29.4412,-92.0613,10.0,7.71,118.0,,'11111222,11111222,99999999' 
WAVCIS,ioos:station:WAVCIS:CSI03:3,2011-11-02T14:00:00Z,29.4412,-92.0613,10.0,7.93,116.0,,'11111222,11111222,99999999' 
WAVCIS,ioos:station:WAVCIS:CSI03:3,2011-11-02T15:00:00Z,29.4412,-92.0613,10.0,8.68,118.0,,'11111222,11111222,99999999' 
WAVCIS,ioos:station:WAVCIS:CSI03:3,2011-11-02T16:00:00Z,29.4412,-92.0613,10.0,9.03,117.0,,'11111222,11111222,99999999' 
WAVCIS,ioos:station:WAVCIS:CSI03:3,2011-11-02T17:00:00Z,29.4412,-92.0613,10.0,8.43,123.0,,'11111222,11111222,99999999' 
WAVCIS,ioos:station:WAVCIS:CSI03:3,2011-11-02T18:00:00Z,29.4412,-92.0613,10.0,8.76,126.0,,'11111222,11111222,99999999' 
WAVCIS,ioos:station:WAVCIS:CSI03:3,2011-11-02T19:00:00Z,29.4412,-92.0613,10.0,8.34,129.0,,'11111222,11111222,99999999' 
WAVCIS,ioos:station:WAVCIS:CSI03:3,2011-11-02T20:00:00Z,29.4412,-92.0613,10.0,7.9,130.0,,'11111222,11111222,99999999' 
WAVCIS,ioos:station:WAVCIS:CSI03:3,2011-11-02T21:00:00Z,29.4412,-92.0613,10.0,7.44,132.0,,'11111222,11111222,99999999' 
WAVCIS,ioos:station:WAVCIS:CSI03:3,2011-11-02T22:00:00Z,29.4412,-92.0613,10.0,6.951,130.0,,'11111222,11111222,99999999' 
WAVCIS,ioos:station:WAVCIS:CSI03:3,2011-11-02T23:00:00Z,29.4412,-92.0613,10.0,6.012,130.0,,'11111222,11111222,99999999' 
WAVCIS,ioos:station:WAVCIS:CSI03:3,2011-11-03T00:00:00Z,29.4412,-92.0613,10.0,6.594,132.0,,'11111222,11111222,99999999' 
WAVCIS,ioos:station:WAVCIS:CSI03:3,2011-11-03T01:00:00Z,29.4412,-92.0613,10.0,7.44,130.0,,'11111222,11111222,99999999' 
WAVCIS,ioos:station:WAVCIS:CSI03:3,2011-11-03T02:00:00Z,29.4412,-92.0613,10.0,7.58,135.0,,'11111222,11111222,99999999' 
WAVCIS,ioos:station:WAVCIS:CSI03:3,2011-11-03T03:00:00Z,29.4412,-92.0613,10.0,7.32,135.0,,'11111222,11111222,99999999' 
WAVCIS,ioos:station:WAVCIS:CSI03:3,2011-11-03T04:00:00Z,29.4412,-92.0613,10.0,5.328,143.0,,'11111222,11111222,99999999' 
WAVCIS,ioos:station:WAVCIS:CSI03:3,2011-11-03T05:00:00Z,29.4412,-92.0613,10.0,4.092,139.0,,'11111222,11111222,99999999' 
WAVCIS,ioos:station:WAVCIS:CSI03:3,2011-11-03T06:00:00Z,29.4412,-92.0613,10.0,4.557,141.0,,'11111222,11111222,99999999' 
WAVCIS,ioos:station:WAVCIS:CSI03:3,2011-11-03T07:00:00Z,29.4412,-92.0613,10.0,4.094,145.0,,'11111222,11111222,99999999' 
WAVCIS,ioos:station:WAVCIS:CSI03:3,2011-11-03T08:00:00Z,29.4412,-92.0613,10.0,3.113,178.0,,'11111222,11111222,99999999' 
WAVCIS,ioos:station:WAVCIS:CSI03:3,2011-11-03T09:00:00Z,29.4412,-92.0613,10.0,2.128,185.0,,'11111222,11111222,99999999' 
WAVCIS,ioos:station:WAVCIS:CSI03:3,2011-11-03T10:00:00Z,29.4412,-92.0613,10.0,2.777,187.0,,'11111222,11111222,99999999' 
WAVCIS,ioos:station:WAVCIS:CSI03:3,2011-11-03T11:00:00Z,29.4412,-92.0613,10.0,1.235,206.0,,'11111222,11111222,99999999' 
WAVCIS,ioos:station:WAVCIS:CSI03:3,2011-11-03T12:00:00Z,29.4412,-92.0613,10.0,13.06,331.0,,'11111222,11111222,99999999' 
WAVCIS,ioos:station:WAVCIS:CSI03:3,2011-11-03T13:00:00Z,29.4412,-92.0613,10.0,11.32,351.0,,'11111222,11111222,99999999' 
WAVCIS,ioos:station:WAVCIS:CSI03:3,2011-11-03T14:00:00Z,29.4412,-92.0613,10.0,12.46,351.0,,'11111222,11111222,99999999' 
WAVCIS,ioos:station:WAVCIS:CSI03:3,2011-11-03T15:00:00Z,29.4412,-92.0613,10.0,9.33,4.0,,'11111222,11111222,99999999' 
WAVCIS,ioos:station:WAVCIS:CSI03:3,2011-11-03T16:00:00Z,29.4412,-92.0613,10.0,8.11,2.0,,'11111222,11111222,99999999' 
WAVCIS,ioos:station:WAVCIS:CSI03:3,2011-11-03T17:00:00Z,29.4412,-92.0613,10.0,9.91,351.0,,'11111222,11111222,99999999' 
WAVCIS,ioos:station:WAVCIS:CSI03:3,2011-11-03T18:00:00Z,29.4412,-92.0613,10.0,7.03,355.0,,'11111222,11111222,99999999' 
WAVCIS,ioos:station:WAVCIS:CSI03:3,2011-11-03T19:00:00Z,29.4412,-92.0613,10.0,8.57,347.0,,'11111222,11111222,99999999' 
WAVCIS,ioos:station:WAVCIS:CSI03:3,2011-11-03T20:00:00Z,29.4412,-92.0613,10.0,8.39,352.0,,'11111222,11111222,99999999' 
WAVCIS,ioos:station:WAVCIS:CSI03:3,2011-11-03T21:00:00Z,29.4412,-92.0613,10.0,7.58,355.0,,'11111222,11111222,99999999' 
WAVCIS,ioos:station:WAVCIS:CSI03:3,2011-11-03T22:00:00Z,29.4412,-92.0613,10.0,7.69,353.0,,'11111222,11111222,99999999' 
WAVCIS,ioos:station:WAVCIS:CSI03:3,2011-11-03T23:00:00Z,29.4412,-92.0613,10.0,7.68,353.0,,'11111222,11111222,99999999' 
WAVCIS,ioos:station:WAVCIS:CSI03:3,2011-11-04T00:00:00Z,29.4412,-92.0613,10.0,6.928,354.0,,'11111222,11111222,99999999' 
WAVCIS,ioos:station:WAVCIS:CSI03:3,2011-11-04T01:00:00Z,29.4412,-92.0613,10.0,8.32,348.0,,'11111222,11111222,99999999' 
WAVCIS,ioos:station:WAVCIS:CSI03:3,2011-11-04T02:00:00Z,29.4412,-92.0613,10.0,10.15,336.0,,'11111222,11111222,99999999' 
WAVCIS,ioos:station:WAVCIS:CSI03:3,2011-11-04T03:00:00Z,29.4412,-92.0613,10.0,5.877,358.0,,'11111222,11111222,99999999' 
WAVCIS,ioos:station:WAVCIS:CSI03:3,2011-11-04T04:00:00Z,29.4412,-92.0613,10.0,7.47,357.0,,'11111222,11111222,99999999' 
WAVCIS,ioos:station:WAVCIS:CSI03:3,2011-11-04T05:00:00Z,29.4412,-92.0613,10.0,7.32,353.0,,'11111222,11111222,99999999' 
WAVCIS,ioos:station:WAVCIS:CSI03:3,2011-11-04T06:00:00Z,29.4412,-92.0613,10.0,7.79,337.0,,'11111222,11111222,99999999' 
WAVCIS,ioos:station:WAVCIS:CSI03:3,2011-11-04T07:00:00Z,29.4412,-92.0613,10.0,9.56,347.0,,'11111222,11111222,99999999' 
WAVCIS,ioos:station:WAVCIS:CSI03:3,2011-11-04T08:00:00Z,29.4412,-92.0613,10.0,9.34,348.0,,'11111222,11111222,99999999' 
WAVCIS,ioos:station:WAVCIS:CSI03:3,2011-11-04T09:00:00Z,29.4412,-92.0613,10.0,7.13,357.0,,'11111222,11111222,99999999' 
WAVCIS,ioos:station:WAVCIS:CSI03:3,2011-11-04T10:00:00Z,29.4412,-92.0613,10.0,6.498,1.0,,'11111222,11111222,99999999' 
WAVCIS,ioos:station:WAVCIS:CSI03:3,2011-11-04T11:00:00Z,29.4412,-92.0613,10.0,6.065,5.0,,'11111222,11111222,99999999' 
WAVCIS,ioos:station:WAVCIS:CSI03:3,2011-11-04T12:00:00Z,29.4412,-92.0613,10.0,5.573,8.0,,'11111222,11111222,99999999' 
WAVCIS,ioos:station:WAVCIS:CSI03:3,2011-11-04T13:00:00Z,29.4412,-92.0613,10.0,5.058,9.0,,'11111222,11111222,99999999' 
WAVCIS,ioos:station:WAVCIS:CSI03:3,2011-11-04T14:00:00Z,29.4412,-92.0613,10.0,5.675,17.0,,'11111222,11111222,99999999' 
WAVCIS,ioos:station:WAVCIS:CSI03:3,2011-11-04T15:00:00Z,29.4412,-92.0613,10.0,4.673,30.0,,'11111222,11111222,99999999' 
WAVCIS,ioos:station:WAVCIS:CSI03:3,2011-11-04T16:00:00Z,29.4412,-92.0613,10.0,5.073,32.0,,'11111222,11111222,99999999' 
WAVCIS,ioos:station:WAVCIS:CSI03:3,2011-11-04T17:00:00Z,29.4412,-92.0613,10.0,4.008,14.0,,'11111222,11111222,99999999' 
WAVCIS,ioos:station:WAVCIS:CSI03:3,2011-11-04T18:00:00Z,29.4412,-92.0613,10.0,3.344,24.0,,'11111222,11111222,99999999' 
WAVCIS,ioos:station:WAVCIS:CSI03:3,2011-11-04T19:00:00Z,29.4412,-92.0613,10.0,2.475,18.0,,'11111222,11111222,99999999' 
WAVCIS,ioos:station:WAVCIS:CSI03:3,2011-11-04T20:00:00Z,29.4412,-92.0613,10.0,1.92,14.0,,'11111222,11111222,99999999' 
WAVCIS,ioos:station:WAVCIS:CSI03:3,2011-11-04T21:00:00Z,29.4412,-92.0613,10.0,2.294,31.0,,'11111222,11111222,99999999' 
WAVCIS,ioos:station:WAVCIS:CSI03:3,2011-11-04T22:00:00Z,29.4412,-92.0613,10.0,3.193,13.0,,'11111222,11111222,99999999' 
WAVCIS,ioos:station:WAVCIS:CSI03:3,2011-11-04T23:00:00Z,29.4412,-92.0613,10.0,2.51,23.0,,'11111222,11111222,99999999' 
WAVCIS,ioos:station:WAVCIS:CSI03:3,2011-11-05T00:00:00Z,29.4412,-92.0613,10.0,3.808,4.0,,'11111222,11111222,99999999' 
WAVCIS,ioos:station:WAVCIS:CSI03:3,2011-11-05T01:00:00Z,29.4412,-92.0613,10.0,4.05,2.0,,'11111222,11111222,99999999' 
WAVCIS,ioos:station:WAVCIS:CSI03:3,2011-11-05T02:00:00Z,29.4412,-92.0613,10.0,5.318,48.0,,'11111222,11111222,99999999' 
WAVCIS,ioos:station:WAVCIS:CSI03:3,2011-11-05T03:00:00Z,29.4412,-92.0613,10.0,6.108,49.0,,'11111222,11111222,99999999' 
WAVCIS,ioos:station:WAVCIS:CSI03:3,2011-11-05T04:00:00Z,29.4412,-92.0613,10.0,5.812,47.0,,'11111222,11111222,99999999' 
WAVCIS,ioos:station:WAVCIS:CSI03:3,2011-11-05T05:00:00Z,29.4412,-92.0613,10.0,7.32,50.0,,'11111222,11111222,99999999' 
WAVCIS,ioos:station:WAVCIS:CSI03:3,2011-11-05T06:00:00Z,29.4412,-92.0613,10.0,8.48,62.0,,'11111222,11111222,99999999' 
WAVCIS,ioos:station:WAVCIS:CSI03:3,2011-11-05T07:00:00Z,29.4412,-92.0613,10.0,8.47,77.0,,'11111222,11111222,99999999' 
WAVCIS,ioos:station:WAVCIS:CSI03:3,2011-11-05T08:00:00Z,29.4412,-92.0613,10.0,8.16,88.0,,'11111222,11111222,99999999' 
WAVCIS,ioos:station:WAVCIS:CSI03:3,2011-11-05T09:00:00Z,29.4412,-92.0613,10.0,8.76,101.0,,'11111222,11111222,99999999' 
WAVCIS,ioos:station:WAVCIS:CSI03:3,2011-11-05T10:00:00Z,29.4412,-92.0613,10.0,8.18,105.0,,'11111222,11111222,99999999' 
WAVCIS,ioos:station:WAVCIS:CSI03:3,2011-11-05T11:00:00Z,29.4412,-92.0613,10.0,8.42,114.0,,'11111222,11111222,99999999' 
WAVCIS,ioos:station:WAVCIS:CSI03:3,2011-11-05T12:00:00Z,29.4412,-92.0613,10.0,7.82,104.0,,'11111222,11111222,99999999' 
WAVCIS,ioos:station:WAVCIS:CSI03:3,2011-11-05T13:00:00Z,29.4412,-92.0613,10.0,7.03,98.0,,'11111222,11111222,99999999' 
WAVCIS,ioos:station:WAVCIS:CSI03:3,2011-11-05T14:00:00Z,29.4412,-92.0613,10.0,5.248,82.0,,'11111222,11111222,99999999' 
WAVCIS,ioos:station:WAVCIS:CSI03:3,2011-11-05T15:00:00Z,29.4412,-92.0613,10.0,4.122,72.0,,'11111222,11111222,99999999' 
WAVCIS,ioos:station:WAVCIS:CSI03:3,2011-11-05T16:00:00Z,29.4412,-92.0613,10.0,5.592,83.0,,'11111222,11111222,99999999' 
WAVCIS,ioos:station:WAVCIS:CSI03:3,2011-11-05T17:00:00Z,29.4412,-92.0613,10.0,6.716,95.0,,'11111222,11111222,99999999' 
WAVCIS,ioos:station:WAVCIS:CSI03:3,2011-11-05T18:00:00Z,29.4412,-92.0613,10.0,6.996,100.0,,'11111222,11111222,99999999' 
WAVCIS,ioos:station:WAVCIS:CSI03:3,2011-11-05T19:00:00Z,29.4412,-92.0613,10.0,7.03,97.0,,'11111222,11111222,99999999' 
WAVCIS,ioos:station:WAVCIS:CSI03:3,2011-11-05T20:00:00Z,29.4412,-92.0613,10.0,6.265,109.0,,'11111222,11111222,99999999' 
WAVCIS,ioos:station:WAVCIS:CSI03:3,2011-11-05T21:00:00Z,29.4412,-92.0613,10.0,6.186,107.0,,'11111222,11111222,99999999' 
WAVCIS,ioos:station:WAVCIS:CSI03:3,2011-11-05T22:00:00Z,29.4412,-92.0613,10.0,4.588,109.0,,'11111222,11111222,99999999' 
WAVCIS,ioos:station:WAVCIS:CSI03:3,2011-11-05T23:00:00Z,29.4412,-92.0613,10.0,5.335,105.0,,'11111222,11111222,99999999' 
WAVCIS,ioos:station:WAVCIS:CSI03:3,2011-11-06T00:00:00Z,29.4412,-92.0613,10.0,5.899,113.0,,'11111222,11111222,99999999' 
WAVCIS,ioos:station:WAVCIS:CSI03:3,2011-11-06T01:00:00Z,29.4412,-92.0613,10.0,6.367,121.0,,'11111222,11111222,99999999' 
WAVCIS,ioos:station:WAVCIS:CSI03:3,2011-11-06T02:00:00Z,29.4412,-92.0613,10.0,8.07,120.0,,'11111222,11111222,99999999' 
WAVCIS,ioos:station:WAVCIS:CSI03:3,2011-11-06T03:00:00Z,29.4412,-92.0613,10.0,7.55,110.0,,'11111222,11111222,99999999' 
WAVCIS,ioos:station:WAVCIS:CSI03:3,2011-11-06T04:00:00Z,29.4412,-92.0613,10.0,9.37,114.0,,'11111222,11111222,99999999' 
WAVCIS,ioos:station:WAVCIS:CSI03:3,2011-11-06T05:00:00Z,29.4412,-92.0613,10.0,11.14,116.0,,'11111222,11111222,99999999' 
WAVCIS,ioos:station:WAVCIS:CSI03:3,2011-11-06T06:00:00Z,29.4412,-92.0613,10.0,10.67,113.0,,'11111222,11111222,99999999' 
WAVCIS,ioos:station:WAVCIS:CSI03:3,2011-11-06T07:00:00Z,29.4412,-92.0613,10.0,9.75,108.0,,'11111222,11111222,99999999' 
WAVCIS,ioos:station:WAVCIS:CSI03:3,2011-11-06T08:00:00Z,29.4412,-92.0613,10.0,8.96,107.0,,'11111222,11111222,99999999' 
WAVCIS,ioos:station:WAVCIS:CSI03:3,2011-11-06T09:00:00Z,29.4412,-92.0613,10.0,8.54,101.0,,'11111222,11111222,99999999' 
WAVCIS,ioos:station:WAVCIS:CSI03:3,2011-11-06T10:00:00Z,29.4412,-92.0613,10.0,7.19,95.0,,'11111222,11111222,99999999' 
WAVCIS,ioos:station:WAVCIS:CSI03:3,2011-11-06T11:00:00Z,29.4412,-92.0613,10.0,7.75,85.0,,'11111222,11111222,99999999' 
WAVCIS,ioos:station:WAVCIS:CSI03:3,2011-11-06T12:00:00Z,29.4412,-92.0613,10.0,6.854,87.0,,'11111222,11111222,99999999' 
WAVCIS,ioos:station:WAVCIS:CSI03:3,2011-11-06T13:00:00Z,29.4412,-92.0613,10.0,7.72,93.0,,'11111222,11111222,99999999' 
WAVCIS,ioos:station:WAVCIS:CSI03:3,2011-11-06T14:00:00Z,29.4412,-92.0613,10.0,7.23,100.0,,'11111222,11111222,99999999' 
WAVCIS,ioos:station:WAVCIS:CSI03:3,2011-11-06T15:00:00Z,29.4412,-92.0613,10.0,8.55,103.0,,'11111222,11111222,99999999' 
WAVCIS,ioos:station:WAVCIS:CSI03:3,2011-11-06T16:00:00Z,29.4412,-92.0613,10.0,8.11,103.0,,'11111222,11111222,99999999' 
WAVCIS,ioos:station:WAVCIS:CSI03:3,2011-11-06T17:00:00Z,29.4412,-92.0613,10.0,7.61,103.0,,'11111222,11111222,99999999' 
WAVCIS,ioos:station:WAVCIS:CSI03:3,2011-11-06T18:00:00Z,29.4412,-92.0613,10.0,7.33,108.0,,'11111222,11111222,99999999' 
WAVCIS,ioos:station:WAVCIS:CSI03:3,2011-11-06T19:00:00Z,29.4412,-92.0613,10.0,6.822,109.0,,'11111222,11111222,99999999' 
WAVCIS,ioos:station:WAVCIS:CSI03:3,2011-11-06T20:00:00Z,29.4412,-92.0613,10.0,6.73,120.0,,'11111222,11111222,99999999' 
WAVCIS,ioos:station:WAVCIS:CSI03:3,2011-11-06T21:00:00Z,29.4412,-92.0613,10.0,7.39,121.0,,'11111222,11111222,99999999' 
WAVCIS,ioos:station:WAVCIS:CSI03:3,2011-11-06T22:00:00Z,29.4412,-92.0613,10.0,8.17,120.0,,'11111222,11111222,99999999' 
WAVCIS,ioos:station:WAVCIS:CSI03:3,2011-11-06T23:00:00Z,29.4412,-92.0613,10.0,7.54,126.0,,'11111222,11111222,99999999' 
WAVCIS,ioos:station:WAVCIS:CSI03:3,2011-11-07T00:00:00Z,29.4412,-92.0613,10.0,6.942,125.0,,'11111222,11111222,99999999' 
WAVCIS,ioos:station:WAVCIS:CSI03:3,2011-11-07T01:00:00Z,29.4412,-92.0613,10.0,8.29,116.0,,'11111222,11111222,99999999' 
WAVCIS,ioos:station:WAVCIS:CSI03:3,2011-11-07T02:00:00Z,29.4412,-92.0613,10.0,8.29,114.0,,'11111222,11111222,99999999' 
WAVCIS,ioos:station:WAVCIS:CSI03:3,2011-11-07T03:00:00Z,29.4412,-92.0613,10.0,7.7,106.0,,'11111222,11111222,99999999' 
WAVCIS,ioos:station:WAVCIS:CSI03:3,2011-11-07T04:00:00Z,29.4412,-92.0613,10.0,7.67,109.0,,'11111222,11111222,99999999' 
WAVCIS,ioos:station:WAVCIS:CSI03:3,2011-11-07T05:00:00Z,29.4412,-92.0613,10.0,8.17,111.0,,'11111222,11111222,99999999' 
WAVCIS,ioos:station:WAVCIS:CSI03:3,2011-11-07T06:00:00Z,29.4412,-92.0613,10.0,8.09,111.0,,'11111222,11111222,99999999' 
WAVCIS,ioos:station:WAVCIS:CSI03:3,2011-11-07T07:00:00Z,29.4412,-92.0613,10.0,8.47,110.0,,'11111222,11111222,99999999' 
WAVCIS,ioos:station:WAVCIS:CSI03:3,2011-11-07T08:00:00Z,29.4412,-92.0613,10.0,8.54,107.0,,'11111222,11111222,99999999' 
WAVCIS,ioos:station:WAVCIS:CSI03:3,2011-11-07T09:00:00Z,29.4412,-92.0613,10.0,7.82,108.0,,'11111222,11111222,99999999' 
WAVCIS,ioos:station:WAVCIS:CSI03:3,2011-11-07T10:00:00Z,29.4412,-92.0613,10.0,7.37,107.0,,'11111222,11111222,99999999' 
WAVCIS,ioos:station:WAVCIS:CSI03:3,2011-11-07T11:00:00Z,29.4412,-92.0613,10.0,7.4,108.0,,'11111222,11111222,99999999' 
WAVCIS,ioos:station:WAVCIS:CSI03:3,2011-11-07T12:00:00Z,29.4412,-92.0613,10.0,7.63,109.0,,'11111222,11111222,99999999' 
WAVCIS,ioos:station:WAVCIS:CSI03:3,2011-11-07T13:00:00Z,29.4412,-92.0613,10.0,7.84,106.0,,'11111222,11111222,99999999' 
WAVCIS,ioos:station:WAVCIS:CSI03:3,2011-11-07T14:00:00Z,29.4412,-92.0613,10.0,7.82,104.0,,'11111222,11111222,99999999' 
WAVCIS,ioos:station:WAVCIS:CSI03:3,2011-11-07T15:00:00Z,29.4412,-92.0613,10.0,7.81,107.0,,'11111222,11111222,99999999' 
WAVCIS,ioos:station:WAVCIS:CSI03:3,2011-11-07T16:00:00Z,29.4412,-92.0613,10.0,7.68,104.0,,'11111222,11111222,99999999' 
WAVCIS,ioos:station:WAVCIS:CSI03:3,2011-11-07T17:00:00Z,29.4412,-92.0613,10.0,7.93,104.0,,'11111222,11111222,99999999' 
WAVCIS,ioos:station:WAVCIS:CSI03:3,2011-11-07T18:00:00Z,29.4412,-92.0613,10.0,7.36,104.0,,'11111222,11111222,99999999' 
WAVCIS,ioos:station:WAVCIS:CSI03:3,2011-11-07T19:00:00Z,29.4412,-92.0613,10.0,6.764,112.0,,'11111222,11111222,99999999' 
WAVCIS,ioos:station:WAVCIS:CSI03:3,2011-11-07T20:00:00Z,29.4412,-92.0613,10.0,6.883,120.0,,'11111222,11111222,99999999' 
WAVCIS,ioos:station:WAVCIS:CSI03:3,2011-11-07T21:00:00Z,29.4412,-92.0613,10.0,7.21,129.0,,'11111222,11111222,99999999' 
WAVCIS,ioos:station:WAVCIS:CSI03:3,2011-11-07T22:00:00Z,29.4412,-92.0613,10.0,6.161,125.0,,'11111222,11111222,99999999' 
WAVCIS,ioos:station:WAVCIS:CSI03:3,2011-11-07T23:00:00Z,29.4412,-92.0613,10.0,7.91,128.0,,'11111222,11111222,99999999' 
WAVCIS,ioos:station:WAVCIS:CSI03:3,2011-11-08T00:00:00Z,29.4412,-92.0613,10.0,7.94,127.0,,'11111222,11111222,99999999' 
WAVCIS,ioos:station:WAVCIS:CSI03:3,2011-11-08T01:00:00Z,29.4412,-92.0613,10.0,7.76,122.0,,'11111222,11111222,99999999' 
WAVCIS,ioos:station:WAVCIS:CSI03:3,2011-11-08T02:00:00Z,29.4412,-92.0613,10.0,7.97,118.0,,'11111222,11111222,99999999' 
WAVCIS,ioos:station:WAVCIS:CSI03:3,2011-11-08T03:00:00Z,29.4412,-92.0613,10.0,8.22,119.0,,'11111222,11111222,99999999' 
WAVCIS,ioos:station:WAVCIS:CSI03:3,2011-11-08T04:00:00Z,29.4412,-92.0613,10.0,8.2,117.0,,'11111222,11111222,99999999' 
WAVCIS,ioos:station:WAVCIS:CSI03:3,2011-11-08T05:00:00Z,29.4412,-92.0613,10.0,6.955,117.0,,'11111222,11111222,99999999' 
WAVCIS,ioos:station:WAVCIS:CSI03:3,2011-11-08T06:00:00Z,29.4412,-92.0613,10.0,7.07,119.0,,'11111222,11111222,99999999' 
WAVCIS,ioos:station:WAVCIS:CSI03:3,2011-11-08T07:00:00Z,29.4412,-92.0613,10.0,6.32,115.0,,'11111222,11111222,99999999' 
WAVCIS,ioos:station:WAVCIS:CSI03:3,2011-11-08T08:00:00Z,29.4412,-92.0613,10.0,6.803,118.0,,'11111222,11111222,99999999' 
WAVCIS,ioos:station:WAVCIS:CSI03:3,2011-11-08T09:00:00Z,29.4412,-92.0613,10.0,6.046,114.0,,'11111222,11111222,99999999' 
WAVCIS,ioos:station:WAVCIS:CSI03:3,2011-11-08T10:00:00Z,29.4412,-92.0613,10.0,6.453,121.0,,'11111222,11111222,99999999' 
WAVCIS,ioos:station:WAVCIS:CSI03:3,2011-11-08T11:00:00Z,29.4412,-92.0613,10.0,6.101,109.0,,'11111222,11111222,99999999' 
WAVCIS,ioos:station:WAVCIS:CSI03:3,2011-11-08T12:00:00Z,29.4412,-92.0613,10.0,5.549,122.0,,'11111222,11111222,99999999' 
WAVCIS,ioos:station:WAVCIS:CSI03:3,2011-11-08T13:00:00Z,29.4412,-92.0613,10.0,5.985,136.0,,'11111222,11111222,99999999' 
WAVCIS,ioos:station:WAVCIS:CSI03:3,2011-11-08T14:00:00Z,29.4412,-92.0613,10.0,6.984,131.0,,'11111222,11111222,99999999' 
WAVCIS,ioos:station:WAVCIS:CSI03:3,2011-11-08T15:00:00Z,29.4412,-92.0613,10.0,6.704,138.0,,'11111222,11111222,99999999' 
WAVCIS,ioos:station:WAVCIS:CSI03:3,2011-11-08T16:00:00Z,29.4412,-92.0613,10.0,5.401,134.0,,'11111222,11111222,99999999' 
WAVCIS,ioos:station:WAVCIS:CSI03:3,2011-11-08T17:00:00Z,29.4412,-92.0613,10.0,5.413,136.0,,'11111222,11111222,99999999' 
WAVCIS,ioos:station:WAVCIS:CSI03:3,2011-11-08T18:00:00Z,29.4412,-92.0613,10.0,6.14,132.0,,'11111222,11111222,99999999' 
WAVCIS,ioos:station:WAVCIS:CSI03:3,2011-11-08T19:00:00Z,29.4412,-92.0613,10.0,5.176,138.0,,'11111222,11111222,99999999' 
WAVCIS,ioos:station:WAVCIS:CSI03:3,2011-11-08T20:00:00Z,29.4412,-92.0613,10.0,5.778,144.0,,'11111222,11111222,99999999' 
WAVCIS,ioos:station:WAVCIS:CSI03:3,2011-11-08T21:00:00Z,29.4412,-92.0613,10.0,6.401,144.0,,'11111222,11111222,99999999' 
WAVCIS,ioos:station:WAVCIS:CSI03:3,2011-11-08T22:00:00Z,29.4412,-92.0613,10.0,5.256,141.0,,'11111222,11111222,99999999' 
WAVCIS,ioos:station:WAVCIS:CSI03:3,2011-11-08T23:00:00Z,29.4412,-92.0613,10.0,6.116,144.0,,'11111222,11111222,99999999' 
WAVCIS,ioos:station:WAVCIS:CSI03:3,2011-11-09T00:00:00Z,29.4412,-92.0613,10.0,5.874,142.0,,'11111222,11111222,99999999' 
WAVCIS,ioos:station:WAVCIS:CSI03:3,2011-11-09T01:00:00Z,29.4412,-92.0613,10.0,5.591,137.0,,'11111222,11111222,99999999' 
WAVCIS,ioos:station:WAVCIS:CSI03:3,2011-11-09T02:00:00Z,29.4412,-92.0613,10.0,6.225,148.0,,'11111222,11111222,99999999' 
WAVCIS,ioos:station:WAVCIS:CSI03:3,2011-11-09T03:00:00Z,29.4412,-92.0613,10.0,7.06,165.0,,'11111222,11111222,99999999' 
WAVCIS,ioos:station:WAVCIS:CSI03:3,2011-11-09T04:00:00Z,29.4412,-92.0613,10.0,6.451,171.0,,'11111222,11111222,99999999' 
WAVCIS,ioos:station:WAVCIS:CSI03:3,2011-11-09T05:00:00Z,29.4412,-92.0613,10.0,3.024,173.0,,'11111222,11111222,99999999' 